OE9GTV Weather Reports


Display with metric or nautical units.
time (UTC)temp
F
wind
direction
speed
MPH
gust
MPH
rain 1hr
in
rain 24hr
in
rain mn
in
humidity
%
barometer
mb
20260506080113 56 216 0.0 1.0 0.00 0.00 0.00 79 1003.8
20260506073112 55 216 0.0 0.0 0.00 0.00 0.00 81 1003.6
20260506072112 55 216 0.0 2.0 0.00 0.00 0.00 82 1003.7
20260506071112 54 216 0.0 3.0 0.00 0.00 0.00 83 1003.5
20260506070112 54 216 0.0 0.0 0.00 0.00 0.00 83 1003.8
20260506062112 53 216 0.0 0.0 0.00 0.00 0.00 83 1003.8
20260506061112 53 216 0.0 0.0 0.00 0.00 0.00 83 1004.0
20260506060112 52 216 0.0 0.0 0.00 0.00 0.00 83 1003.9
20260506051111 51 216 0.0 0.0 0.00 0.00 0.00 81 1004.0
20260506050112 51 216 0.0 0.0 0.00 0.00 0.00 81 1004.1
20260506045112 51 216 0.0 0.0 0.00 0.00 0.00 81 1004.1
20260506044111 51 216 0.0 0.0 0.00 0.00 0.00 80 1004.2
20260506043111 51 216 0.0 0.0 0.00 0.00 0.00 80 1004.4
20260506042111 51 216 0.0 0.0 0.00 0.00 0.00 80 1004.5
20260506041111 51 216 0.0 0.0 0.00 0.00 0.00 80 1004.5
20260506040111 51 216 0.0 0.0 0.00 0.00 0.00 80 1004.6
20260506035111 51 216 0.0 0.0 0.00 0.00 0.00 80 1004.9
20260506034111 51 216 0.0 0.0 0.00 0.00 0.00 80 1005.0
20260506033111 52 216 0.0 0.0 0.00 0.00 0.00 80 1005.1
20260506032111 52 216 0.0 0.0 0.00 0.00 0.00 80 1005.2
20260506031111 52 216 1.0 3.0 0.00 0.00 0.00 80 1005.2
20260506030111 52 216 1.0 3.0 0.00 0.00 0.00 80 1005.2
20260506025112 52 216 1.0 4.0 0.00 0.00 0.00 80 1005.4
20260506024111 52 216 2.0 4.0 0.00 0.00 0.00 80 1005.6
20260506023111 52 216 0.0 2.0 0.00 0.00 0.00 80 1005.8
20260506022111 52 216 0.0 0.0 0.00 0.00 0.00 80 1005.9
20260506021111 52 216 0.0 2.0 0.00 0.00 0.00 80 1005.8
20260506020111 52 216 2.0 4.0 0.00 0.00 0.00 81 1005.9
20260506015110 52 216 1.0 4.0 0.00 0.00 0.00 81 1005.9
20260506014110 52 216 3.0 6.0 0.00 0.00 0.00 81 1006.0
20260506013110 52 216 2.0 5.0 0.00 0.00 0.00 81 1006.2
20260506012110 52 216 2.0 5.0 0.00 0.00 0.00 81 1006.2
20260506011110 51 216 2.0 6.0 0.00 0.00 0.00 80 1006.2
20260506010110 51 216 3.0 6.0 0.00 0.00 0.00 80 1006.4
20260506005110 51 216 4.0 6.0 0.00 0.00 0.00 79 1006.3
20260506004111 51 216 2.0 5.0 0.00 0.00 0.00 79 1006.2
20260506003110 51 216 1.0 2.0 0.00 0.00 0.00 78 1006.5
20260506002110 51 216 0.0 2.0 0.00 0.00 0.00 78 1006.6
20260506001110 51 216 1.0 4.0 0.00 0.00 0.00 77 1006.9
20260506000110 51 216 0.0 0.0 0.00 0.00 0.00 76 1006.9
20260505235110 52 216 0.0 0.0 0.00 0.00 0.00 76 1006.8
20260505234110 52 216 0.0 0.0 0.00 0.00 0.00 75 1006.6
20260505233109 52 216 0.0 0.0 0.00 0.00 0.00 75 1006.7
20260505232109 52 216 0.0 0.0 0.00 0.00 0.00 74 1006.9
20260505231109 52 216 0.0 0.0 0.00 0.00 0.00 74 1006.9
20260505230109 53 216 0.0 1.0 0.00 0.00 0.00 73 1006.9
20260505225109 53 216 0.0 0.0 0.00 0.00 0.00 72 1007.0
20260505224110 53 216 0.0 0.0 0.00 0.00 0.00 72 1007.1
20260505223114 54 216 0.0 0.0 0.00 0.00 0.00 71 1007.1
20260505222114 54 216 0.0 1.0 0.00 0.00 0.00 71 1007.0
20260505221114 54 216 1.0 2.0 0.00 0.00 0.00 71 1007.0
20260505220114 55 216 0.0 0.0 0.00 0.00 0.00 70 1007.0
20260505215114 56 216 0.0 0.0 0.00 0.00 0.00 69 1007.1
20260505214114 56 216 0.0 0.0 0.00 0.00 0.00 69 1007.2
20260505213114 56 216 0.0 0.0 0.00 0.00 0.00 68 1007.3
20260505212114 57 216 0.0 0.0 0.00 0.00 0.00 68 1007.3
20260505211113 57 216 0.0 1.0 0.00 0.00 0.00 68 1007.3
20260505210114 57 216 0.0 0.0 0.00 0.00 0.00 67 1007.2
20260505205114 58 216 0.0 1.0 0.00 0.00 0.00 67 1007.2
20260505204113 58 216 0.0 1.0 0.00 0.00 0.00 67 1007.0
20260505203113 58 216 0.0 3.0 0.00 0.00 0.00 66 1007.0
20260505202113 58 216 0.0 1.0 0.00 0.00 0.00 65 1006.9
20260505201113 58 216 0.0 2.0 0.00 0.00 0.00 64 1006.8
20260505200113 58 216 1.0 4.0 0.00 0.00 0.00 64 1006.9
20260505195113 59 216 2.0 5.0 0.00 0.00 0.00 63 1006.7
20260505194113 59 212 3.0 9.0 0.00 0.00 0.00 63 1006.6
20260505193113 59 214 4.0 10.0 0.00 0.00 0.00 63 1006.5
20260505192113 60 225 7.0 14.0 0.00 0.00 0.00 61 1006.3
20260505191113 60 234 4.0 13.0 0.00 0.00 0.00 60 1006.4
20260505190113 60 227 9.0 21.0 0.00 0.00 0.00 59 1006.2
20260505185113 60 229 6.0 15.0 0.00 0.00 0.00 60 1006.0
20260505184112 60 220 4.0 12.0 0.00 0.00 0.00 65 1006.0
20260505183113 61 108 3.0 9.0 0.00 0.00 0.00 69 1006.1
20260505182112 62 77 1.0 3.0 0.00 0.00 0.00 69 1006.1
20260505181112 62 63 2.0 11.0 0.00 0.00 0.00 68 1005.7
20260505180112 62 5 2.0 6.0 0.00 0.00 0.00 67 1005.6
20260505175112 63 5 1.0 3.0 0.00 0.00 0.00 67 1005.5
20260505174112 63 5 2.0 4.0 0.00 0.00 0.00 67 1005.3
20260505173112 63 5 2.0 4.0 0.00 0.00 0.00 66 1005.1
20260505172112 63 5 1.0 3.0 0.00 0.00 0.00 66 1004.9
20260505171112 64 5 1.0 4.0 0.00 0.00 0.00 66 1004.7
20260505170112 64 5 3.0 7.0 0.00 0.00 0.00 66 1004.7
20260505165112 64 5 2.0 6.0 0.00 0.00 0.00 65 1004.6
20260505164111 64 24 3.0 6.0 0.00 0.00 0.00 64 1004.6
20260505163112 65 17 4.0 8.0 0.00 0.00 0.00 63 1004.5
20260505162111 65 28 4.0 8.0 0.00 0.00 0.00 62 1004.5
20260505161111 65 26 4.0 9.0 0.00 0.00 0.00 62 1004.3
20260505160111 65 360 3.0 9.0 0.00 0.00 0.00 61 1004.2
20260505153111 67 61 5.0 11.0 0.00 0.00 0.00 61 1004.0
20260505152111 67 54 6.0 14.0 0.00 0.00 0.00 61 1004.0
20260505151111 67 25 7.0 14.0 0.00 0.00 0.00 58 1004.1
20260505150111 68 38 4.0 10.0 0.00 0.00 0.00 60 1003.9
20260505140111 64 71 6.0 13.0 0.00 0.00 0.00 67 1004.1
20260505130116 67 44 4.0 10.0 0.00 0.00 0.00 65 1004.4
20260505124115 64 331 3.0 8.0 0.00 0.00 0.00 67 1004.5
20260505123115 64 324 2.0 6.0 0.00 0.00 0.00 69 1004.6
20260505122115 63 21 1.0 4.0 0.00 0.00 0.00 67 1004.8
20260505121115 63 19 3.0 6.0 0.00 0.00 0.00 68 1004.9
20260505120115 62 43 2.0 5.0 0.00 0.00 0.00 68 1005.0
20260505115115 62 43 3.0 5.0 0.00 0.00 0.00 70 1005.1
20260505114114 62 42 1.0 4.0 0.00 0.00 0.00 71 1005.1
20260505113114 62 44 3.0 7.0 0.00 0.00 0.00 71 1005.2
20260505112114 61 45 2.0 6.0 0.00 0.00 0.00 72 1005.3
20260505111115 62 51 3.0 6.0 0.00 0.00 0.00 71 1005.4
20260505110114 62 61 4.0 7.0 0.00 0.00 0.00 71 1005.3
20260505102114 60 166 1.0 5.0 0.00 0.00 0.00 73 1005.5
20260505101114 60 169 1.0 4.0 0.00 0.00 0.00 74 1005.7
20260505100114 59 169 2.0 5.0 0.00 0.00 0.00 75 1005.7
20260505095114 59 169 1.0 2.0 0.00 0.00 0.00 76 1005.7
20260505094114 59 169 0.0 4.0 0.00 0.00 0.00 76 1005.7
20260505093114 58 169 1.0 4.0 0.00 0.00 0.00 77 1005.8
20260505092114 58 169 0.0 2.0 0.00 0.00 0.00 77 1005.9
20260505091114 58 169 0.0 2.0 0.00 0.00 0.00 78 1005.9
20260505090114 58 169 1.0 4.0 0.00 0.00 0.00 78 1005.9
20260505085114 58 169 0.0 2.0 0.00 0.00 0.00 78 1005.9
20260505084113 57 169 0.0 1.0 0.00 0.00 0.00 78 1006.0
20260505083113 57 169 2.0 5.0 0.00 0.00 0.00 78 1006.1
20260505082113 57 169 1.0 4.0 0.00 0.00 0.00 79 1006.1
20260505081113 57 169 1.0 4.0 0.00 0.00 0.00 79 1006.3